Scottsboro, AL

9:26 AM CDT on August 19, 2017 (GMT -0500)
Scottsboro

Weather History for K4A6 - November, 2012

Change the Weather History Date:

Monday, November 26, 2012

  Actual Average (KHSV) Record (KHSV)
Temperature  
Mean Temperature 46 °F -  
Max Temperature 64 °F 61 °F 78 °F (1965)
Min Temperature 28 °F 41 °F 16 °F (1950)
Degree Days  
Heating Degree Days 19    
Moisture  
Dew Point 35 °F    
Average Humidity 67    
Maximum Humidity 94    
Minimum Humidity 34    
Precipitation  
Precipitation 0.05 in - - ()
Sea Level Pressure  
Sea Level Pressure 30.15 in    
Wind  
Wind Speed - (North)    
Max Wind Speed -    
Max Gust Speed -    
Visibility 3 miles    
Events Rain    
Averages and records for this station are not official NWS values.
T = Trace of Precipitation, MM = Missing Value Source: NWS Daily Summary

Daily Weather History Graph

Daily Weather History Graph

Search for Another Location

Airport or City:

Trip Planner

Search our weather history database for the weather conditions in past years. The results will help you decide how hot, cold, wet, or windy it might be!

Date:

Astronomy

Nov. 26, 2012 Rise Set
Actual Time 6:28 AM CST 4:34 PM CST
Civil Twilight 6:01 AM CST 5:01 PM CST
Nautical Twilight 5:30 AM CST 5:32 PM CST
Astronomical Twilight 5:00 AM CST 6:02 PM CST
Moon 3:23 PM CST (11/26) 4:41 AM CST (11/26)
Length of Visible Light 10h 59m
Length of Day
10h 05m
Waxing Gibbous, 97% of the Moon is Illuminated
Nov 26
Waxing Gibbous
Nov 28
Full
Dec 6
Last Quarter
Dec 13
New
Dec 19
First Quarter

Hourly Weather History & Observations

Time (CST) Temp. Dew Point Humidity Pressure Visibility Wind Dir Wind Speed Gust Speed Precip Events Conditions
12:15 AM 32.0 °F 24.8 °F 75% 30.14 in 4.0 mi North - - N/A   Haze
12:35 AM 32.0 °F 24.8 °F 75% 30.14 in 4.0 mi North - - N/A   Haze
12:55 AM 32.0 °F 24.8 °F 75% 30.14 in 4.0 mi North - - N/A   Haze
1:15 AM 30.2 °F 24.8 °F 80% 30.14 in 4.0 mi North - - N/A   Haze
1:35 AM 30.2 °F 24.8 °F 80% 30.15 in 4.0 mi North - - N/A   Haze
1:55 AM 28.4 °F 24.8 °F 86% 30.15 in 4.0 mi North - - N/A   Clear
2:15 AM 30.2 °F 24.8 °F 80% 30.15 in 4.0 mi North - - N/A   Haze
2:35 AM 30.2 °F 24.8 °F 80% 30.15 in 4.0 mi North - - N/A   Haze
2:55 AM 30.2 °F 24.8 °F 80% 30.16 in 4.0 mi North - - N/A   Haze
3:15 AM 32.0 °F 26.6 °F 80% 30.16 in 4.0 mi North - - N/A   Haze
3:35 AM 32.0 °F 26.6 °F 80% 30.17 in 4.0 mi North - - N/A   Haze
3:55 AM 32.0 °F 26.6 °F 80% 30.17 in 4.0 mi North - - N/A   Haze
4:15 AM 32.0 °F 26.6 °F 80% 30.17 in 4.0 mi North - - N/A   Haze
4:35 AM 32.0 °F 28.4 °F 87% 30.18 in 3.0 mi North - - N/A   Overcast
4:55 AM 32.0 °F 28.4 °F 87% 30.18 in 4.0 mi North - - N/A   Haze
5:15 AM 32.0 °F 28.4 °F 87% 30.19 in 4.0 mi North - - N/A   Haze
5:55 AM 32.0 °F 28.4 °F 87% 30.20 in 4.0 mi North - - N/A   Haze
6:15 AM 33.8 °F 28.4 °F 81% 30.20 in 4.0 mi North - - N/A   Haze
6:35 AM 33.8 °F 30.2 °F 87% 30.21 in 3.0 mi North - - N/A   Overcast
6:55 AM 35.6 °F 28.4 °F 75% 30.21 in 3.0 mi North - - N/A   Haze
7:15 AM 37.4 °F 30.2 °F 75% 30.21 in 2.5 mi North - - N/A   Haze
7:55 AM 39.2 °F 30.2 °F 70% 30.21 in 2.5 mi North - - N/A   Haze
8:15 AM 41.0 °F 28.4 °F 61% 30.22 in 2.5 mi North - - N/A   Haze
8:35 AM 42.8 °F 30.2 °F 61% 30.22 in 2.5 mi North - - N/A   Haze
8:55 AM 46.4 °F 28.4 °F 50% 30.22 in 3.0 mi North - - N/A   Haze
9:15 AM 48.2 °F 28.4 °F 46% 30.22 in 3.0 mi North - - N/A   Haze
9:35 AM 50.0 °F 28.4 °F 43% 30.22 in 3.0 mi North - - N/A   Haze
9:55 AM 51.8 °F 30.2 °F 44% 30.21 in 3.0 mi North - - N/A   Haze
10:15 AM 53.6 °F 32.0 °F 44% 30.21 in 3.0 mi North - - N/A   Haze
10:35 AM 55.4 °F 35.6 °F 47% 30.20 in 3.0 mi North - - N/A   Haze
10:55 AM 57.2 °F 37.4 °F 48% 30.19 in 3.0 mi North - - N/A   Haze
11:15 AM 59.0 °F 37.4 °F 45% 30.17 in 3.0 mi North - - N/A   Haze
11:35 AM 59.0 °F 37.4 °F 45% 30.15 in 3.0 mi North - - N/A   Haze
11:55 AM 60.8 °F 37.4 °F 42% 30.14 in 3.0 mi North - - N/A   Haze
12:15 PM 62.6 °F 37.4 °F 39% 30.13 in 3.0 mi North - - N/A   Haze
12:35 PM 62.6 °F 37.4 °F 39% 30.12 in 3.0 mi North - - N/A   Haze
12:55 PM 62.6 °F 35.6 °F 37% 30.12 in 3.0 mi North - - N/A   Haze
1:15 PM 62.6 °F 37.4 °F 39% 30.11 in 3.0 mi North - - N/A   Haze
1:35 PM 64.4 °F 35.6 °F 34% 30.11 in 4.0 mi North - - N/A   Haze
1:55 PM 62.6 °F 35.6 °F 37% 30.11 in 3.0 mi North - - N/A   Haze
2:15 PM 62.6 °F 35.6 °F 37% 30.11 in 4.0 mi North - - N/A   Haze
2:35 PM 62.6 °F 35.6 °F 37% 30.11 in 3.0 mi North - - N/A   Haze
2:55 PM 62.6 °F 35.6 °F 37% 30.11 in 3.0 mi North - - N/A   Haze
3:15 PM 62.6 °F 35.6 °F 37% 30.11 in 3.0 mi North - - N/A   Haze
3:35 PM 62.6 °F 35.6 °F 37% 30.12 in 3.0 mi North - - N/A   Haze
3:55 PM 62.6 °F 35.6 °F 37% 30.11 in 4.0 mi North - - N/A   Haze
4:15 PM 60.8 °F 37.4 °F 42% 30.11 in 2.0 mi North - - N/A Rain Light Rain
4:35 PM 59.0 °F 37.4 °F 45% 30.12 in 2.5 mi North - - N/A Rain Light Rain
4:55 PM 59.0 °F 37.4 °F 45% 30.11 in 4.0 mi North - - N/A   Haze
5:15 PM 57.2 °F 44.6 °F 63% 30.12 in 5.0 mi North - - N/A   Haze
5:35 PM 55.4 °F 41.0 °F 58% 30.12 in 4.0 mi North - - N/A   Haze
5:55 PM 55.4 °F 41.0 °F 58% 30.11 in 4.0 mi North - - N/A   Haze
6:15 PM 53.6 °F 41.0 °F 62% 30.11 in 5.0 mi North - - N/A   Haze
6:35 PM 50.0 °F 41.0 °F 71% 30.12 in 4.0 mi North - - N/A   Haze
6:55 PM 53.6 °F 41.0 °F 62% 30.14 in 2.0 mi North - - N/A Rain Light Rain
7:15 PM 50.0 °F 46.4 °F 87% 30.14 in 2.0 mi North - - 0.03 in Rain Light Rain
7:35 PM 50.0 °F 48.2 °F 94% 30.14 in 3.0 mi North - - 0.03 in Rain Light Rain
7:55 PM 50.0 °F 48.2 °F 94% 30.14 in 3.0 mi North - - 0.03 in   Overcast
8:15 PM 50.0 °F 48.2 °F 94% 30.13 in 3.0 mi North - - N/A   Overcast
8:35 PM 50.0 °F 48.2 °F 94% 30.13 in 3.0 mi North - - N/A   Overcast
8:55 PM 50.0 °F 48.2 °F 94% 30.13 in 2.5 mi North - - N/A   Overcast
9:15 PM 50.0 °F 48.2 °F 94% 30.13 in 3.0 mi North - - N/A   Overcast
9:35 PM 50.0 °F 48.2 °F 94% 30.12 in 3.0 mi North - - N/A   Overcast
9:55 PM 50.0 °F 48.2 °F 94% 30.13 in 2.5 mi North - - 0.02 in Rain Light Rain
10:15 PM 50.0 °F 48.2 °F 94% 30.13 in 3.0 mi North - - N/A   Overcast
10:55 PM 50.0 °F 48.2 °F 94% 30.12 in 3.0 mi North - - N/A   Overcast
11:15 PM 50.0 °F 48.2 °F 94% 30.11 in 3.0 mi North - - N/A   Overcast
11:35 PM 50.0 °F 48.2 °F 94% 30.11 in 3.0 mi North - - N/A   Overcast
11:55 PM 50.0 °F 48.2 °F 94% 30.11 in 2.0 mi North - - N/A   Overcast